GW0098 Weather Reports


Display with metric or nautical units.
time (UTC)temp
F
wind
direction
speed
MPH
gust
MPH
rain 1hr
in
rain 24hr
in
rain mn
in
humidity
%
barometer
mb
20260506014559 52 0.0 0.0 0.00 0.00 0.00 80 1009.6
20260506013050 52 0.0 0.0 0.00 0.00 0.00 80 1009.5
20260506011555 53 0.0 0.0 0.00 0.00 0.00 80 1009.2
20260506010058 53 0.0 0.0 0.00 0.00 0.00 79 1009.1
20260506004554 53 0.0 0.0 0.00 0.00 0.00 80 1008.9
20260506003102 53 0.0 0.0 0.00 0.00 0.00 80 1009.1
20260506001606 53 0.0 0.0 0.00 0.00 0.00 80 1008.7
20260506000100 54 0.0 0.0 0.00 0.00 0.00 79 1008.7
20260505234610 54 0.0 0.0 0.00 0.00 0.00 80 1008.7
20260505233055 54 0.0 0.0 0.00 0.00 0.00 81 1008.4
20260505231556 54 0.0 0.0 0.00 0.00 0.00 82 1007.9
20260505230054 54 0.0 0.0 0.00 0.00 0.00 83 1007.6
20260505224552 55 0.0 0.0 0.00 0.00 0.00 83 1007.5
20260505223107 55 0.0 0.0 0.00 0.00 0.00 82 1007.0
20260505221552 56 0.0 0.0 0.00 0.00 0.00 83 1006.9
20260505220054 57 0.0 0.0 0.00 0.00 0.00 81 1007.0
20260505214558 57 0.0 0.0 0.00 0.00 0.00 81 1006.4
20260505213053 57 0.0 0.0 0.00 0.00 0.00 83 1006.9
20260505211615 58 0.0 0.0 0.00 0.00 0.00 82 1007.1
20260505210057 59 0.0 0.0 0.00 0.00 0.00 82 1006.6
20260505204558 59 0.0 0.0 0.00 0.00 0.00 82 1006.1
20260505203114 59 0.0 0.0 0.00 0.00 0.00 81 1006.0
20260505201554 60 0.0 0.0 0.00 0.00 0.00 82 1006.0
20260505200053 61 0.0 0.0 0.00 0.00 0.00 80 1006.7
20260505194555 62 0.0 0.0 0.00 0.00 0.00 81 1006.2
20260505193056 62 0.0 0.0 0.00 0.00 0.00 80 1005.3
20260505191555 62 0.0 0.0 0.00 0.00 0.00 80 1005.2
20260505190054 61 0.0 0.0 0.00 0.00 0.00 82 1005.5
20260505184556 64 0.0 0.0 0.00 0.00 0.00 76 1005.4
20260505183055 77 0.0 0.0 0.00 0.00 0.00 78 1005.2
20260505181556 77 0.0 0.0 0.00 0.00 0.00 79 1004.6
20260505180104 76 0.0 0.0 0.00 0.00 0.00 78 1004.2
20260505174600 76 0.0 0.0 0.00 0.00 0.00 78 1004.1
20260505173054 76 0.0 0.0 0.00 0.00 0.00 78 1004.1
20260505171557 75 0.0 0.0 0.00 0.00 0.00 80 1004.0
20260505170055 75 0.0 0.0 0.00 0.00 0.00 79 1004.0
20260505164556 75 0.0 0.0 0.00 0.00 0.00 79 1003.9
20260505163053 74 0.0 0.0 0.00 0.00 0.00 80 1003.9
20260505161553 74 0.0 0.0 0.00 0.00 0.00 80 1003.8
20260505153056 73 0.0 0.0 0.00 0.00 0.00 81 1003.6
20260505151553 72 0.0 0.0 0.00 0.00 0.00 83 1003.6
20260505140104 69 0.0 0.0 0.00 0.00 0.00 84 1004.1
20260505124557 70 0.0 0.0 0.00 0.00 0.00 83 1004.1
20260505123056 70 0.0 0.0 0.00 0.00 0.00 82 1003.6
20260505121557 70 0.0 0.0 0.00 0.00 0.00 82 1003.1
20260505120112 70 0.0 0.0 0.00 0.00 0.00 82 1003.0
20260505114559 70 0.0 0.0 0.00 0.00 0.00 82 1002.6
20260505113104 70 0.0 0.0 0.00 0.00 0.00 82 1002.2
20260505111555 70 0.0 0.0 0.00 0.00 0.00 82 1002.3
20260505101601 70 0.0 0.0 0.00 0.00 0.00 81 1002.1
20260505100055 69 0.0 0.0 0.00 0.00 0.00 81 1001.9
20260505094602 69 0.0 0.0 0.00 0.00 0.00 81 1002.1
20260505093056 69 0.0 0.0 0.00 0.00 0.00 80 1002.1
20260505091552 70 0.0 0.0 0.00 0.00 0.00 80 1002.3
20260505090059 70 0.0 0.0 0.00 0.00 0.00 78 1002.2
20260505084600 71 0.0 0.0 0.00 0.00 0.00 78 1002.3
20260505083105 71 0.0 0.0 0.00 0.00 0.00 77 1001.8
20260505081551 71 0.0 0.0 0.00 0.00 0.00 76 1001.7
20260505080055 71 0.0 0.0 0.00 0.00 0.00 76 1001.9
20260505074553 72 0.0 0.0 0.00 0.00 0.00 75 1001.9
20260505073055 72 0.0 0.0 0.00 0.00 0.00 75 1001.9
20260505071600 72 0.0 0.0 0.00 0.00 0.00 75 1002.1
20260505070104 71 0.0 0.0 0.00 0.00 0.00 75 1002.1
20260505064558 72 0.0 0.0 0.00 0.00 0.00 74 1002.4
20260505063054 71 0.0 0.0 0.00 0.00 0.00 74 1002.8
20260505061628 72 0.0 0.0 0.00 0.00 0.00 73 1002.9
20260505060059 72 0.0 0.0 0.00 0.00 0.00 73 1003.3
20260505054557 71 0.0 0.0 0.00 0.00 0.00 72 1003.5
20260505053059 71 0.0 0.0 0.00 0.00 0.00 72 1003.4
20260505051551 71 0.0 0.0 0.00 0.00 0.00 71 1003.4
20260505041556 71 0.0 0.0 0.00 0.00 0.00 69 1004.2
20260505034602 71 0.0 0.0 0.00 0.00 0.00 70 1004.5
20260505033103 70 0.0 0.0 0.00 0.00 0.00 70 1004.7
20260505031558 70 0.0 0.0 0.00 0.00 0.00 69 1005.0
20260505030057 70 0.0 0.0 0.00 0.00 0.00 69 1005.0
20260505024554 70 0.0 0.0 0.00 0.00 0.00 69 1004.8
20260505023054 70 0.0 0.0 0.00 0.00 0.00 69 1005.2
20260505021553 71 0.0 0.0 0.00 0.00 0.00 68 1005.0
20260505020054 71 0.0 0.0 0.00 0.00 0.00 67 1004.8